Weather History for Morgantown, WV

Change the Weather History Date:

Wednesday, August 7, 2013

  Actual Average Record
Temperature  
Mean Temperature 77 °F 73 °F  
Max Temperature 87 °F 83 °F 92 °F (1998)
Min Temperature 66 °F 63 °F 48 °F (1957)
Degree Days  
Heating Degree Days 0 0  
Month to date heating degree days 0 0  
Since 1 June heating degree days 12 34  
Since 1 July heating degree days 1 3  
Cooling Degree Days 12 8  
Month to date cooling degree days 35 56  
Year to date cooling degree days 629 540  
Since 1 June cooling degree days 483 473  
Growing Degree Days 26 (Base 50)    
Moisture  
Dew Point 66 °F    
Average Humidity 72    
Maximum Humidity 93    
Minimum Humidity 50    
Precipitation  
Precipitation 0.24 in 0.12 in 1.51 in (2011)
Month to date precipitation 0.68 0.84  
Year to date precipitation 24.74 26.76  
Sea Level Pressure  
Sea Level Pressure 30.00 in    
Wind  
Wind Speed 4 mph (ESE)    
Max Wind Speed 16 mph    
Max Gust Speed 22 mph    
Visibility 7 miles    
Events Rain , Thunderstorm    
T = Trace of Precipitation, MM = Missing Value Source: NWS Daily Summary

Daily Weather History Graph

Daily Weather History Graph

Search for Another Location

Airport:

Trip Planner

Search our weather history database for the weather conditions in past years. The results will help you decide how hot, cold, wet, or windy it might be!

Date:

Astronomy

Aug. 07, 2013 Rise Set
Actual Time 6:24 AM EDT 8:25 PM EDT
Civil Twilight 5:55 AM EDT 8:54 PM EDT
Nautical Twilight 5:19 AM EDT 9:30 PM EDT
Astronomical Twilight 4:39 AM EDT 10:09 PM EDT
Moon 7:11 AM EDT (8/7) 8:32 PM EDT (8/7)
Length of Visible Light 14h 59m
Length of Day
14h 00m
New Moon, 1% of the Moon is Illuminated
Aug 7
New Moon
Aug 14
First Quarter
Aug 20
Full
Aug 28
Last Quarter
Sep 5
New

Hourly Weather History & Observations

Time (EDT) Temp. Heat Index Dew Point Humidity Pressure Visibility Wind Dir Wind Speed Gust Speed Precip Events Conditions
12:53 AM 70.0 °F - 62.1 °F 76% 29.99 in 10.0 mi Calm Calm - N/A   Clear
1:53 AM 70.0 °F - 63.0 °F 78% 29.99 in 10.0 mi SSE 8.1 mph - N/A   Mostly Cloudy
2:53 AM 69.1 °F - 63.0 °F 81% 29.99 in 10.0 mi SE 3.5 mph - N/A   Scattered Clouds
3:53 AM 66.9 °F - 62.1 °F 84% 30.00 in 10.0 mi Calm Calm - N/A   Partly Cloudy
4:53 AM 68.0 °F - 63.0 °F 84% 30.00 in 10.0 mi Calm Calm - N/A   Mostly Cloudy
5:53 AM 68.0 °F - 64.0 °F 87% 29.99 in 10.0 mi Calm Calm - N/A   Mostly Cloudy
6:53 AM 68.0 °F - 64.0 °F 87% 29.99 in 10.0 mi ESE 3.5 mph - N/A   Scattered Clouds
7:53 AM 70.0 °F - 64.9 °F 84% 30.00 in 10.0 mi Calm Calm - N/A   Mostly Cloudy
8:53 AM 70.0 °F - 64.9 °F 84% 30.00 in 10.0 mi South 3.5 mph - N/A   Partly Cloudy
9:53 AM 75.9 °F - 66.9 °F 74% 29.99 in 10.0 mi Variable 5.8 mph - N/A   Partly Cloudy
10:53 AM 78.1 °F - 66.9 °F 68% 30.01 in 10.0 mi South 5.8 mph - N/A   Partly Cloudy
11:53 AM 80.1 °F 82.7 °F 68.0 °F 67% 30.01 in 10.0 mi SW 4.6 mph - N/A   Scattered Clouds
12:53 PM 82.9 °F 85.4 °F 66.9 °F 58% 29.99 in 10.0 mi SW 6.9 mph - N/A   Mostly Cloudy
1:53 PM 84.0 °F 86.5 °F 66.9 °F 56% 29.97 in 10.0 mi SSW 8.1 mph - N/A   Mostly Cloudy
2:53 PM 84.9 °F 88.2 °F 68.0 °F 57% 29.96 in 10.0 mi South 5.8 mph - N/A   Partly Cloudy
3:53 PM 87.1 °F 89.2 °F 66.0 °F 49% 29.94 in 10.0 mi Variable 5.8 mph - N/A   Partly Cloudy
4:53 PM 86.0 °F 88.8 °F 66.9 °F 53% 29.94 in 10.0 mi South 4.6 mph - N/A   Partly Cloudy
5:53 PM 82.0 °F 85.9 °F 70.0 °F 67% 29.94 in 10.0 mi Variable 4.6 mph - 0.00 in Rain , Thunderstorm Light Thunderstorms and Rain
6:02 PM 73.4 °F - 64.4 °F 73% 30.00 in 1.8 mi WSW 10.4 mph 21.9 mph 0.01 in Rain , Thunderstorm Heavy Thunderstorms and Rain
6:11 PM 71.6 °F - 68.0 °F 88% 30.00 in 0.8 mi ESE 3.5 mph 16.1 mph 0.02 in Rain , Thunderstorm Thunderstorms and Rain
6:16 PM 69.8 °F - 69.8 °F 100% 30.00 in 2.5 mi East 3.5 mph - 0.03 in Rain , Thunderstorm Light Thunderstorms and Rain
6:23 PM 71.6 °F - 68.0 °F 88% 30.00 in 5.0 mi East 4.6 mph - 0.04 in Rain , Thunderstorm Thunderstorms and Rain
6:36 PM 71.6 °F - 69.8 °F 94% 29.99 in 8.0 mi East 3.5 mph - 0.05 in Rain Light Rain
6:53 PM 70.0 °F - 68.0 °F 93% 29.99 in 10.0 mi NE 4.6 mph - 0.07 in   Mostly Cloudy
7:48 PM 71.6 °F - 68.0 °F 88% 30.04 in 1.8 mi Calm Calm - 0.03 in Rain Rain
7:53 PM 70.0 °F - 68.0 °F 93% 30.02 in 1.2 mi NNE 5.8 mph - 0.03 in Rain Heavy Rain
7:58 PM 69.8 °F - 66.2 °F 88% 30.04 in 3.0 mi NE 9.2 mph - 0.01 in Rain Light Rain
8:16 PM 68.0 °F - 66.2 °F 94% 30.05 in 2.0 mi NNE 5.8 mph - 0.01 in Rain Rain
8:23 PM 68.0 °F - 66.2 °F 94% 30.04 in 1.0 mi ENE 9.2 mph - 0.02 in Rain Heavy Rain
8:28 PM 68.0 °F - 66.2 °F 94% 30.04 in 2.0 mi East 6.9 mph - 0.02 in Rain Light Rain
8:36 PM 69.8 °F - 66.2 °F 88% 30.05 in 6.0 mi Calm Calm - 0.03 in Rain Light Rain
8:46 PM 68.0 °F - 66.2 °F 94% 30.04 in 1.8 mi NNE 3.5 mph - 0.03 in Rain Heavy Rain
8:53 PM 68.0 °F - 66.9 °F 96% 30.02 in 4.0 mi ENE 3.5 mph - 0.03 in Rain Heavy Rain
9:53 PM 69.1 °F - 66.0 °F 90% 30.01 in 10.0 mi ESE 4.6 mph - 0.04 in   Scattered Clouds
10:53 PM 69.1 °F - 66.0 °F 90% 30.00 in 10.0 mi Calm Calm - 0.02 in   Partly Cloudy
11:53 PM 70.0 °F - 66.0 °F 87% 30.00 in 10.0 mi SSE 6.9 mph - 0.03 in   Scattered Clouds